This is the latest recevied weather packets stored in our database for station/object EA3FHP. If no packets are shown the sender has not sent any weather packets the latest 10 day(s).
| Time | Temp. | Humidity | Pressure | Rain* | Wind** | Luminosity | Snow |
|---|---|---|---|---|---|---|---|
| 1777818605 | 17.78° C | 69% | 1015.5 hPa | 0 mm | - | - | - |
| 1777818003 | 17.78° C | 68% | 1015.7 hPa | 0 mm | - | - | - |
| 1777817403 | 19.44° C | 67% | 1015.7 hPa | 0 mm | - | - | - |
| 1777816204 | 21.11° C | 63% | 1016 hPa | 0 mm | - | - | - |
| 1777815603 | 21.67° C | 60% | 1016.2 hPa | 0 mm | - | - | - |
| 1777815004 | 21.11° C | 62% | 1016.1 hPa | 0 mm | - | - | - |
| 1777814403 | 21.11° C | 61% | 1016.2 hPa | 0 mm | - | - | - |
| 1777813803 | 20.56° C | 63% | 1016 hPa | 0 mm | - | - | - |
| 1777813204 | 19.44° C | 65% | 1016.2 hPa | 0 mm | - | - | - |
| 1777812604 | 21.11° C | 64% | 1016.3 hPa | 0 mm | - | - | - |
| 1777812003 | 20.56° C | 67% | 1016.3 hPa | 0 mm | - | - | - |
| 1777811403 | 20° C | 68% | 1016.4 hPa | 0 mm | - | - | - |
| 1777810804 | 19.44° C | 73% | 1016.7 hPa | 0 mm | - | - | - |
| 1777810204 | 18.89° C | 71% | 1016.5 hPa | 0 mm | - | - | - |
| 1777809604 | 18.33° C | 75% | 1016.9 hPa | 0 mm | - | - | - |
| 1777809004 | 18.33° C | 66% | 1016.9 hPa | 0 mm | - | - | - |
| 1777808403 | 20° C | 64% | 1017.2 hPa | 0 mm | - | - | - |
| 1777807803 | 20° C | 62% | 1017.2 hPa | 0 mm | - | - | - |
| 1777807203 | 20° C | 62% | 1017.2 hPa | 0 mm | - | - | - |
| 1777806604 | 19.44° C | 59% | 1017.3 hPa | 0 mm | - | - | - |
| 1777806004 | 19.44° C | 59% | 1017.5 hPa | 0 mm | - | - | - |
| 1777805404 | 18.89° C | 60% | 1017.3 hPa | 0 mm | - | - | - |
| 1777804804 | 18.33° C | 64% | 1017.7 hPa | 0 mm | - | - | - |
| 1777804203 | 17.78° C | 66% | 1017.9 hPa | 0 mm | - | - | - |
| 1777803603 | 18.33° C | 62% | 1018 hPa | 0 mm | - | - | - |
* Rain latest hour (hover to see other rain measurements)
** Current wind speed in m/s (hover to see current wind gust speed)